SCP
0 0 0 0 0 0 0 0 0 0 0 0 0 0 0 0 0 0 0 0 0 0 0 0 0 0 0 0 0 0 -0 -0 0 -0 0 0 0 0 0 0 -0 -0 -0 -0 0 0 0 -0 -0 0 0 0 0 0
0 0 0 0 0 0 0 0 0 0 0 0 0 0 -0 0 0 0 0 0 0 0 0 0 0 0 -0 -0 0 0 -0 -0 0 0 0 0 0 0 0 0 0 0 0 0 0 0 0 -0 -0 -0 0 0 0 0
0 0 0 0 0 0 0 0 0 0 0 0 0 0 0 -0 0 0 0 0 0 0 0 0 0 0 0 -0 -0 0 -0 -0 -0 0 0 0 0 0 0 0 0 0 -0 0 0 0 0 -0 0 0 0 0 0 0
0 0 0 0 0 0 0 0 0 0 0 0 0 0 0 0 0 0 0 0 0 0 0 0 0 0 -0 0 -0 -0 0 0 0 0 0 0 0 0 0 0 0 0 0 0 0 0 0 0 -0 -0 0 0 0 0
0 0 0 0 0 0 0 0 0 0 0 0 0 0 0 0 0 0 0 0 0 0 0 0 0 0 -0 0 -0 -0 0 0 0 0 0 0 0 0 0 0 0 0 -0 0 0 -0 -0 -0 0 0 0 0 0 0
0 0 0 0 0 0 0 0 0 0 0 0 0 0 0 0 0 0 0 0 0 0 0 0 0 0 0 0 0 -0 -0 0 0 0 -0 -0 0 0 -0 0 0 -0 0 0 0 -0 -0 -0 0 0 0 0 0 0
0 0 0 0 0 0 0 0 0 0 0 0 0 0 0 0 0 0 0 0 0 0 0 0 0 -0 -0 0 0 0 0 0 0 0 0 -0 -0 -0 0 0 0 -0 -0 -0 -0 -0 -0 -0 -0 0 0 0 0 0
0 0 0 0 0 0 0 -0 0 0 0 0 0 0 0 0 0 0 0 0 0 0 0 0 0 0 0 0 0 0 0 0 0 0 0 0 0 -0 0 -0 -0 -0 0 -0 -0 -0 -0 -0 -0 0 -0 0 0 0
0 0 0 0 0 0 0 0 0 0 0 0 0 0 0 0 0 0 0 0 0 0 0 0 0 0 0 0 0 0 0 0 0 0 0 0 -0 -0 -0 -0 0 0 -0 -0 -0 -0 -0 -0 -0 0 0 0 0 0
0 0 0 0 0 0 0 0 0 0 0 0 0 0 0 0 0 0 0 0 0 0 0 0 0 0 0 0 0 0 0 0 0 0 0 0 -0 0 -0 -0 -0 -0 0 -0 -0 0 0 -0 -0 0 -0 -0 0 0
0 0 0 0 0 0 0 0 0 0 0 0 0 0 0 0 0 0 0 0 0 0 -0 0 0 0 0 0 0 0 0 0 0 0 0 -0 -0 0 0 0 -0 -0 -0 -0 -0 -0 -0 -0 -0 -0 0 0 0 0
0 0 0 0 0 0 0 0 0 0 0 0 0 0 0 0 0 0 0 0 0 0 0 0 0 0 0 0 0 0 0 0 0 0 0 0 -0 0 0 0 0 -0 -0 -0 -0 -0 -0 -0 -0 -0 0 0 0 0
0 0 0 0 0 0 0 0 0 0 0 0 0 0 0 0 0 0 0 0 0 0 0 0 0 0 0 0 0 0 0 0 0 0 0 0 0 -0 0 0 0 -0 -0 -0 -0 -0 -0 -0 -0 -0 -0 0 0 0
0 0 0 0 0 0 0 0 0 0 0 0 0 0 0 0 0 0 0 0 0 0 0 0 0 0 0 0 0 0 0 0 0 0 0 0 0 0 0 0 0 0 0 -0 -0 -0 -0 -0 -0 -0 0 0 0 0
0 0 0 0 0 0 0 0 0 0 0 0 0 0 0 0 0 0 0 0 0 0 0 0 0 0 0 0 0 0 0 0 0 0 0 0 0 0 -0 0 -0 -0 0 0 -0 -0 -0 -0 -0 -0 -0 0 -0 0
0 0 0 0 0 0 0 0 0 0 0 0 0 0 0 0 0 0 0 0 0 0 0 0 0 0 0 0 0 0 0 0 0 0 0 0 0 0 0 0 -0 0 0 0 -0 0 0 0 0 -0 -0 -0 -0 -0
0 0 0 0 0 0 0 0 0 0 0 0 0 0 0 0 0 0 0 0 0 0 0 0 0 0 0 0 0 0 0 0 0 0 0 0 0 0 0 0 0 0 0 -0 0 0 0 0 0 0 -0 -0 -0 -0
0 0 0 0 0 0 0 0 0 0 0 0 0 0 0 0 0 0 0 0 0 0 0 0 0 0 0 0 0 0 0 0 0 0 0 0 0 0 0 0 -0 0 0 0 0 0 0 0 0 0 -0 -0 -0 -0
0 0 0 0 0 0 0 0 0 0 0 0 0 0 0 0 0 0 0 0 0 0 0 0 0 0 0 0 0 0 0 0 0 0 0 -0 0 0 0 -0 -0 -0 -0 0 0 0 0 0 0 -0 -0 -0 -0 -0
0 0 -0 0 0 0 0 0 0 0 0 0 0 0 0 0 0 0 0 0 0 0 0 0 0 0 0 0 0 0 0 -0 0 0 0 0 0 0 -0 0 0 0 0 0 0 0 0 0 0 0 -0 -0 0 -0
0 0 0 0 0 0 0 0 0 0 0 0 0 0 0 0 0 0 0 0 0 0 0 0 0 0 0 0 0 0 0 0 0 0 0 0 0 0 0 0 0 0 0 0 0 0 0 0 0 0 0 0 0 0
0 0 0 0 0 0 0 0 0 0 0 0 0 0 0 0 0 0 0 0 0 0 0 0 0 0 0 0 0 0 0 0 0 0 0 0 0 0 0 0 0 0 0 0 0 0 0 0 0 0 0 0 0 0
0 0 0 0 0 0 0 0 0 0 0 0 0 -0 -0 0 0 0 0 0 0 0 0 0 0 0 0 0 0 0 0 0 0 0 0 0 0 0 0 0 0 0 0 0 0 0 0 0 0 0 0 0 0 0
0 0 0 0 0 0 0 0 0 0 0 0 0 -0 -0 -0 -0 -0 -0 -0 -0 0 0 0 0 0 0 0 0 0 0 0 0 0 0 0 0 0 0 0 0 0 0 0 0 0 -0 0 0 0 0 0 0 0
-0 -0 0 0 0 0 0 0 0 0 0 0 0 0 -0 0 0 -0 0 -0 0 0 0 0 0 0 0 0 0 0 0 0 0 0 0 0 0 0 0 0 0 0 0 0 0 0 0 0 0 0 0 0 0 0
0 0 0 0 0 0 0 0 0 0 0 0 0 -0 0 0 0 0 0 -0 -0 0 0 0 0 0 0 0 0 0 0 0 0 0 0 0 0 0 0 0 0 0 0 0 0 0 0 0 -0 -0 0 0 0 0
0 0 0 0 0 0 0 0 0 0 0 0 -0 -0 -0 0 0 -0 0 0 -0 -0 0 0 0 0 0 0 0 0 0 0 0 0 0 0 0 0 0 0 0 0 0 0 0 0 0 0 0 0 0 0 0 0
0 0 0 0 0 0 0 0 0 0 0 0 -0 -0 0 -0 -0 0 0 0 -0 -0 -0 -0 0 0 0 0 0 0 0 0 0 0 0 0 0 0 0 0 0 0 0 0 0 0 0 0 0 0 0 0 0 0
0 0 0 0 0 0 0 0 0 0 0 0 0 -0 0 -0 0 0 0 0 0 0 -0 -0 0 0 0 0 0 0 0 0 0 0 0 0 0 0 0 0 0 0 0 0 0 0 0 0 0 0 0 0 0 0
0 0 0 0 0 0 0 0 0 0 0 0 0 0 0 -0 0 0 0 0 0 0 0 -0 -0 0 -0 -0 0 0 0 0 0 0 0 0 0 0 0 0 0 0 0 0 0 0 0 0 0 0 0 0 0 0
0 0 0 0 0 0 0 0 0 0 0 0 0 0 0 0 0 0 0 0 0 0 0 0 0 0 0 0 0 0 0 0 0 0 0 0 0 0 0 0 0 0 0 0 0 0 0 0 0 0 0 0 0 0
0 0 0 0 0 0 0 0 0 0 0 0 0 0 0 0 0 0 0 0 0 0 0 0 0 0 0 0 0 0 0 0 0 0 0 0 0 0 0 0 0 0 0 0 0 0 0 0 0 0 0 0 0 0
0 0 0 0 0 0 0 0 0 0 0 0 0 0 0 0 0 0 0 0 0 0 0 0 0 0 0 0 0 0 0 0 0 0 0 0 0 0 0 0 0 0 0 0 0 0 0 0 0 0 0 0 0 0
Wind_Speed_500mb
52 54 55 57 61 60 67 71 67 59 53 54 51 43 30 33 21 27 28 30 31 21 52 46 31 31 31 21 5 16 21 7 9 12 7 6 5 7 6 6 10 5 4 6 7 9 12 24 24 9 8 14 20 24
52 55 57 59 62 66 67 66 61 52 51 50 47 41 26 24 23 26 34 28 27 46 60 81 81 64 69 63 31 9 9 9 6 4 3 5 5 6 9 6 2 5 3 5 5 5 15 33 36 58 65 41 16 16
54 55 57 63 67 68 65 63 57 50 48 48 45 39 30 23 22 24 34 32 38 37 52 38 23 5 4 15 22 18 11 9 7 9 4 4 8 4 5 5 7 5 11 4 6 7 15 31 62 23 25 48 33 39
52 57 63 64 64 64 62 56 52 49 49 47 44 39 31 26 29 32 37 35 35 20 11 21 18 46 43 33 33 39 39 13 16 8 7 4 7 10 5 7 6 7 11 10 8 10 21 24 55 41 58 55 58 50
56 60 61 64 64 59 56 52 50 49 47 46 42 36 32 32 31 31 36 44 44 32 9 30 54 5 13 20 20 34 44 42 16 4 6 6 8 7 4 4 5 7 7 7 6 22 19 22 45 50 61 55 55 52
55 58 59 58 56 53 51 52 51 49 46 44 41 35 29 26 25 22 13 5 9 34 8 7 18 14 17 5 10 28 36 29 13 7 9 11 11 7 4 5 9 22 28 22 8 22 20 15 33 37 37 46 44 50
55 54 54 54 53 51 50 50 49 46 45 42 40 35 28 24 21 17 9 12 10 25 7 9 12 9 19 7 9 14 21 16 12 7 8 8 9 8 2 5 11 30 31 34 39 23 19 26 23 30 24 24 33 35
50 51 51 52 51 50 49 50 48 45 43 42 37 31 29 25 25 25 10 27 17 12 10 5 8 14 2 4 6 7 8 11 11 7 8 7 9 2 5 11 17 18 21 34 36 30 25 34 43 41 35 33 35 27
48 49 50 49 47 46 47 47 48 46 39 36 27 15 9 5 5 2 13 15 32 21 10 7 3 7 3 8 11 7 7 5 9 4 6 3 4 7 10 7 6 14 17 21 26 32 30 38 45 47 41 34 28 28
47 48 48 45 44 43 43 40 47 47 41 27 12 4 5 3 8 12 5 6 14 20 15 8 10 6 7 3 4 1 4 3 4 6 4 4 7 16 10 7 4 13 20 18 28 33 30 32 39 40 37 26 21 17
46 47 45 42 41 39 37 40 44 52 41 29 19 6 9 13 11 5 6 8 8 6 11 11 20 8 10 5 6 1 3 2 4 4 2 5 6 8 14 9 4 5 11 18 23 25 26 22 34 36 40 40 30 24
43 44 40 39 37 39 34 34 41 50 41 35 24 23 14 3 7 3 6 6 8 8 8 7 10 18 10 14 3 4 3 3 7 7 1 6 7 11 20 11 6 8 11 17 16 20 22 23 30 36 38 40 39 24
40 38 35 35 37 35 31 35 44 42 40 6 6 7 5 5 5 9 9 5 4 3 1 14 8 10 9 11 3 4 4 7 5 4 6 8 5 18 19 12 13 10 11 13 15 19 23 26 29 36 38 38 34 32
36 32 32 34 35 33 37 43 42 42 19 4 6 9 8 8 9 9 7 4 7 16 33 29 16 13 9 4 4 5 5 5 5 3 10 6 13 25 24 19 17 15 12 11 11 13 18 24 27 33 38 39 37 38
34 29 29 25 31 42 44 44 40 33 10 8 8 9 10 19 16 11 9 16 18 28 23 28 9 7 3 5 4 4 4 6 10 9 7 13 21 31 27 23 20 19 15 11 14 14 14 17 21 26 30 34 39 41
35 31 18 30 37 43 42 43 37 10 9 9 13 11 19 7 10 5 11 20 22 30 34 8 2 4 7 4 6 11 11 11 8 7 14 12 27 30 24 21 21 22 19 7 11 11 8 11 12 20 24 28 34 42
34 24 32 35 39 39 41 36 9 11 10 9 13 24 39 35 28 24 19 37 34 20 4 5 4 11 3 5 5 8 9 7 12 14 13 17 32 40 27 23 21 20 26 17 20 19 12 14 14 13 19 24 27 36
32 33 34 36 38 42 32 7 8 9 13 20 12 20 15 23 27 36 41 37 24 7 9 6 4 8 6 6 6 6 13 23 20 14 18 19 26 28 28 27 17 23 21 24 21 21 19 16 12 13 16 20 24 29
32 33 30 27 21 25 10 6 7 10 17 22 25 37 29 30 37 36 41 41 34 18 11 10 9 6 8 11 8 13 26 23 34 32 26 24 27 27 29 35 31 30 28 28 28 23 19 12 4 9 14 15 19 23
28 24 18 21 26 9 8 11 9 13 10 15 32 32 28 32 37 45 50 49 46 14 12 7 7 10 13 24 25 33 34 36 38 36 31 27 28 34 35 34 36 33 36 33 31 26 27 26 18 11 13 12 14 20
24 23 24 25 15 12 10 11 10 12 19 15 25 38 35 38 26 34 21 21 7 8 5 5 24 29 28 27 37 44 41 28 49 40 37 32 28 37 40 46 40 32 46 44 42 37 35 34 25 19 15 12 13 15
23 29 28 17 5 4 11 12 13 22 15 22 32 15 16 13 22 15 13 8 0 5 12 23 33 37 39 35 33 29 35 40 37 38 42 46 43 35 40 45 49 41 51 52 44 45 42 35 35 31 26 19 13 13
24 18 9 5 5 6 13 11 8 9 5 12 25 11 7 12 13 23 5 8 9 24 27 30 32 34 35 31 23 20 21 23 30 36 36 42 45 46 43 40 50 55 51 63 53 48 49 42 40 36 33 26 18 14
15 4 3 5 5 9 13 7 9 10 7 9 6 10 7 8 18 8 4 5 20 31 34 27 25 30 34 31 29 29 30 24 25 30 29 34 42 45 42 46 46 54 51 61 58 52 54 53 50 46 38 29 21 15
3 3 3 7 7 6 7 6 7 4 6 5 6 8 7 4 4 3 5 24 45 42 46 55 39 35 37 38 35 36 31 32 30 33 28 36 39 40 40 45 45 49 45 55 58 54 55 60 56 51 42 36 30 24
2 5 7 5 5 6 6 6 5 6 9 6 6 13 13 4 5 8 6 38 44 53 57 46 48 47 46 47 54 50 40 34 30 31 33 30 38 41 38 39 46 50 51 55 57 58 61 68 64 57 47 42 36 28
5 8 10 11 10 13 10 13 17 7 6 5 5 8 7 8 9 9 34 44 52 51 43 39 43 44 44 43 50 52 36 21 23 22 21 26 28 32 38 42 52 49 45 44 49 52 62 69 67 60 53 50 43 34
12 8 9 6 11 14 6 5 4 4 5 6 11 5 4 7 7 22 28 44 41 40 42 44 46 44 41 43 53 62 63 31 16 22 26 14 11 16 24 31 36 41 41 41 39 51 57 57 58 62 58 55 49 39
9 8 9 14 10 8 8 7 6 7 5 2 3 5 7 9 21 26 34 34 35 38 43 50 54 51 45 44 51 60 60 71 64 54 51 44 33 26 12 9 16 24 29 43 47 48 51 53 55 63 61 58 51 44
8 8 6 6 5 6 12 13 18 25 18 15 10 12 26 27 43 35 32 33 38 43 40 42 47 54 53 52 49 50 55 58 59 60 55 50 42 32 22 14 8 13 21 27 43 53 57 51 56 67 71 64 56 51
6 7 7 9 10 19 29 28 25 11 12 3 3 9 20 13 17 49 47 40 37 37 41 46 47 51 51 51 51 52 57 53 47 46 48 47 43 36 28 23 14 10 4 6 23 36 47 52 57 65 68 70 65 56
9 13 7 6 10 25 28 18 8 6 7 6 10 7 10 9 11 28 53 45 41 41 40 41 44 44 43 42 43 46 49 52 53 49 46 48 50 43 35 29 25 19 10 5 4 22 41 47 53 63 72 74 65 51
10 15 14 9 7 8 11 17 6 8 9 7 9 19 17 9 8 24 32 41 41 35 30 30 30 32 37 43 45 46 47 45 45 48 50 50 48 49 48 42 34 28 22 11 2 10 25 35 41 46 59 62 54 48
Wind_Direction_500mb
318 320 322 323 325 324 323 322 322 328 328 325 327 329 329 328 288 291 282 292 277 253 287 278 266 264 277 246 253 318 331 338 335 4 342 327 295 309 299 280 312 304 295 207 215 227 251 7 325 232 10 314 321 304
317 321 322 321 322 321 321 322 327 329 325 324 326 326 314 317 316 301 292 290 298 251 275 294 294 280 256 247 265 281 274 290 258 329 302 296 297 295 305 296 351 302 253 286 263 306 315 301 271 277 274 267 320 315
318 320 320 320 320 321 323 325 324 323 321 320 321 323 318 295 296 286 285 281 289 279 295 294 297 255 27 296 232 219 239 232 243 242 294 280 278 279 304 316 290 261 216 238 305 232 286 322 315 347 55 43 37 45
319 319 318 319 320 321 321 322 323 322 320 316 317 318 312 301 292 289 273 277 276 272 280 281 307 297 290 279 241 245 240 248 279 261 251 250 266 205 281 295 292 250 296 286 258 270 335 352 342 18 41 44 51 47
316 316 319 320 319 320 321 321 321 320 320 316 316 316 312 301 300 291 283 275 261 240 280 293 309 325 320 265 251 220 232 242 269 256 232 246 256 272 250 285 268 318 302 346 334 347 343 8 357 28 31 29 39 26
315 317 317 318 320 323 323 323 323 323 322 318 317 315 309 304 302 316 310 290 234 211 256 288 312 306 337 296 203 209 229 240 241 256 246 264 254 233 310 282 266 344 343 356 306 336 17 360 24 38 29 13 30 32
313 313 315 318 323 323 324 325 328 328 325 319 315 308 299 292 272 236 242 287 309 191 254 274 296 284 311 270 222 216 222 225 232 255 244 258 285 219 197 263 300 341 352 30 30 37 24 35 36 53 66 31 33 12
311 314 318 321 323 324 327 327 328 329 324 319 316 307 299 279 257 266 280 240 218 212 253 275 277 316 282 345 294 229 199 200 223 252 271 242 294 292 258 259 327 351 10 25 38 49 52 62 50 46 44 42 36 359
313 316 318 320 323 327 327 330 333 332 329 322 318 318 314 8 164 269 317 280 233 219 289 219 245 266 284 239 231 239 225 233 190 226 251 184 302 241 221 242 11 11 7 6 47 57 50 50 45 38 38 46 45 17
312 316 320 321 324 327 328 336 327 341 342 334 325 280 210 191 275 297 234 215 173 211 233 252 207 267 302 294 274 166 221 278 270 229 259 191 260 267 232 206 347 19 21 43 67 56 49 51 45 36 41 44 44 37
313 316 320 322 326 327 330 332 333 340 348 355 343 309 307 279 296 225 228 199 176 250 228 244 232 234 261 190 233 146 244 281 293 296 349 299 280 242 197 203 359 72 75 73 83 71 57 72 63 47 37 41 45 43
312 314 320 323 326 324 327 330 338 336 338 321 312 305 305 271 240 212 220 195 197 232 204 203 250 217 251 224 186 205 187 36 251 337 31 274 259 196 175 166 147 129 114 83 72 60 59 75 62 58 45 39 43 47
314 316 320 319 318 321 321 335 334 332 330 321 282 265 248 242 250 212 220 215 212 200 22 301 252 223 210 214 213 96 114 235 345 38 241 234 261 192 172 156 169 167 149 109 96 79 89 92 68 54 50 44 44 52
316 320 320 316 311 315 319 326 330 330 324 286 255 257 208 219 237 205 204 171 38 293 290 309 290 192 181 166 170 157 208 70 11 305 239 250 227 188 190 191 180 175 157 141 114 71 90 96 77 51 41 47 50 54
319 327 320 314 317 315 321 318 317 311 265 256 234 240 237 239 263 269 280 296 289 308 324 324 258 216 160 221 220 113 142 248 205 232 236 250 202 188 193 187 191 183 168 173 154 127 112 110 90 74 56 53 55 61
318 329 329 324 313 314 319 314 317 273 245 237 233 255 260 293 287 294 307 314 332 322 322 237 281 283 236 183 188 215 147 221 249 221 244 240 200 189 193 199 203 196 181 167 179 159 127 115 95 74 65 65 64 65
316 333 331 331 324 323 321 311 264 228 241 242 251 250 260 280 270 280 304 309 318 320 259 147 217 224 165 240 249 174 205 225 241 227 219 221 205 197 193 204 214 228 207 192 173 179 174 151 132 94 80 82 74 72
323 334 335 328 321 326 330 284 261 255 252 247 247 273 266 269 288 296 303 315 310 268 276 249 209 224 214 229 248 234 273 303 289 248 230 215 213 209 204 205 217 212 219 211 194 184 185 171 146 107 87 85 82 81
326 330 331 336 334 332 301 279 250 268 259 279 277 288 289 292 298 300 301 304 302 293 260 244 222 211 230 231 260 265 249 287 297 283 242 219 223 219 208 207 208 209 216 207 203 203 207 200 155 101 92 98 96 89
332 334 337 321 323 311 286 269 265 271 280 303 302 295 312 301 304 300 296 292 288 263 202 228 229 252 266 284 294 303 298 303 298 295 271 231 223 229 216 211 211 214 204 201 202 198 195 184 174 142 121 109 114 111
354 351 342 331 319 220 272 305 282 272 291 285 295 321 309 300 292 304 307 333 269 222 250 340 342 323 328 305 293 297 292 268 269 272 270 270 246 235 221 217 219 218 203 202 201 200 202 199 188 174 163 143 128 126
349 337 336 343 298 263 262 250 258 288 286 285 303 287 268 275 288 280 282 247 245 46 1 332 330 331 319 321 316 304 291 283 274 273 262 253 258 244 229 215 215 220 209 206 211 209 206 199 193 186 181 174 156 142
342 333 327 312 286 259 270 286 262 272 278 302 310 297 294 305 295 317 300 39 51 351 335 321 318 318 312 314 332 330 307 299 270 262 258 240 249 250 241 223 215 211 213 212 216 215 208 202 198 196 190 190 183 169
344 306 299 293 275 279 309 275 258 277 284 325 318 293 318 282 315 302 357 72 7 14 9 350 339 336 336 337 331 336 341 318 292 265 246 255 251 237 237 231 222 217 220 212 211 210 210 204 201 199 199 201 201 197
305 225 198 272 247 271 276 265 274 313 280 287 280 280 269 338 289 279 41 3 342 340 350 10 21 22 7 359 341 335 326 326 312 282 250 239 246 243 239 237 228 224 215 204 205 217 210 207 205 202 202 205 204 200
265 218 178 232 268 215 286 315 295 297 312 287 275 290 323 312 269 46 41 357 348 355 3 359 5 7 2 6 3 0 340 323 311 286 272 265 255 253 250 220 205 208 214 211 207 210 212 204 206 205 206 208 209 205
261 277 235 233 236 267 275 275 284 272 255 268 308 320 336 316 22 2 347 351 353 5 11 7 3 7 4 7 7 8 12 354 339 312 287 277 251 237 241 237 222 216 209 211 212 218 209 203 205 205 205 206 208 208
240 256 220 225 243 246 256 258 254 251 265 284 320 294 346 23 7 333 332 354 3 12 17 21 18 16 20 27 26 20 28 56 99 88 95 102 139 205 219 225 230 220 216 218 221 212 206 204 213 210 207 206 205 203
245 241 269 276 282 231 225 236 244 247 259 260 326 323 67 47 13 5 9 8 10 14 15 15 14 17 24 29 35 34 33 34 38 43 45 31 53 57 76 168 187 196 212 221 224 215 217 227 215 215 212 208 205 200
249 212 247 262 242 238 226 241 249 268 255 270 284 129 105 68 42 37 32 28 24 19 20 23 19 22 22 22 21 33 37 35 36 34 28 22 20 23 37 60 102 194 217 225 229 222 223 229 221 213 209 205 200 198
251 216 237 232 261 273 307 311 321 279 262 272 282 206 153 149 44 30 31 29 27 22 17 20 25 26 27 31 33 30 31 35 36 33 31 25 24 13 28 47 51 48 61 219 223 226 227 228 224 217 208 204 199 197
209 218 229 238 265 305 313 315 278 157 116 98 31 106 102 86 47 18 12 18 24 26 22 19 22 29 33 33 35 39 39 35 33 34 31 30 30 27 30 38 39 37 30 29 241 236 231 231 228 217 207 197 189 183
254 258 246 262 286 306 319 325 251 98 82 85 66 66 73 81 81 18 14 21 24 21 23 30 35 38 37 34 33 33 33 34 35 38 38 37 35 39 43 42 40 39 34 25 279 243 229 223 213 213 198 185 177 168
Wind_Speed_850mb
52 54 55 57 61 60 67 71 67 59 53 54 51 43 30 33 21 27 28 30 31 21 52 46 31 31 31 21 5 16 21 7 9 12 7 6 5 7 6 6 10 5 4 6 7 9 12 24 24 9 8 14 20 24
52 55 57 59 62 66 67 66 61 52 51 50 47 41 26 24 23 26 34 28 27 46 60 81 81 64 69 63 31 9 9 9 6 4 3 5 5 6 9 6 2 5 3 5 5 5 15 33 36 58 65 41 16 16
54 55 57 63 67 68 65 63 57 50 48 48 45 39 30 23 22 24 34 32 38 37 52 38 23 5 4 15 22 18 11 9 7 9 4 4 8 4 5 5 7 5 11 4 6 7 15 31 62 23 25 48 33 39
52 57 63 64 64 64 62 56 52 49 49 47 44 39 31 26 29 32 37 35 35 20 11 21 18 46 43 33 33 39 39 13 16 8 7 4 7 10 5 7 6 7 11 10 8 10 21 24 55 41 58 55 58 50
56 60 61 64 64 59 56 52 50 49 47 46 42 36 32 32 31 31 36 44 44 32 9 30 54 5 13 20 20 34 44 42 16 4 6 6 8 7 4 4 5 7 7 7 6 22 19 22 45 50 61 55 55 52
55 58 59 58 56 53 51 52 51 49 46 44 41 35 29 26 25 22 13 5 9 34 8 7 18 14 17 5 10 28 36 29 13 7 9 11 11 7 4 5 9 22 28 22 8 22 20 15 33 37 37 46 44 50
55 54 54 54 53 51 50 50 49 46 45 42 40 35 28 24 21 17 9 12 10 25 7 9 12 9 19 7 9 14 21 16 12 7 8 8 9 8 2 5 11 30 31 34 39 23 19 26 23 30 24 24 33 35
50 51 51 52 51 50 49 50 48 45 43 42 37 31 29 25 25 25 10 27 17 12 10 5 8 14 2 4 6 7 8 11 11 7 8 7 9 2 5 11 17 18 21 34 36 30 25 34 43 41 35 33 35 27
48 49 50 49 47 46 47 47 48 46 39 36 27 15 9 5 5 2 13 15 32 21 10 7 3 7 3 8 11 7 7 5 9 4 6 3 4 7 10 7 6 14 17 21 26 32 30 38 45 47 41 34 28 28
47 48 48 45 44 43 43 40 47 47 41 27 12 4 5 3 8 12 5 6 14 20 15 8 10 6 7 3 4 1 4 3 4 6 4 4 7 16 10 7 4 13 20 18 28 33 30 32 39 40 37 26 21 17
46 47 45 42 41 39 37 40 44 52 41 29 19 6 9 13 11 5 6 8 8 6 11 11 20 8 10 5 6 1 3 2 4 4 2 5 6 8 14 9 4 5 11 18 23 25 26 22 34 36 40 40 30 24
43 44 40 39 37 39 34 34 41 50 41 35 24 23 14 3 7 3 6 6 8 8 8 7 10 18 10 14 3 4 3 3 7 7 1 6 7 11 20 11 6 8 11 17 16 20 22 23 30 36 38 40 39 24
40 38 35 35 37 35 31 35 44 42 40 6 6 7 5 5 5 9 9 5 4 3 1 14 8 10 9 11 3 4 4 7 5 4 6 8 5 18 19 12 13 10 11 13 15 19 23 26 29 36 38 38 34 32
36 32 32 34 35 33 37 43 42 42 19 4 6 9 8 8 9 9 7 4 7 16 33 29 16 13 9 4 4 5 5 5 5 3 10 6 13 25 24 19 17 15 12 11 11 13 18 24 27 33 38 39 37 38
34 29 29 25 31 42 44 44 40 33 10 8 8 9 10 19 16 11 9 16 18 28 23 28 9 7 3 5 4 4 4 6 10 9 7 13 21 31 27 23 20 19 15 11 14 14 14 17 21 26 30 34 39 41
35 31 18 30 37 43 42 43 37 10 9 9 13 11 19 7 10 5 11 20 22 30 34 8 2 4 7 4 6 11 11 11 8 7 14 12 27 30 24 21 21 22 19 7 11 11 8 11 12 20 24 28 34 42
34 24 32 35 39 39 41 36 9 11 10 9 13 24 39 35 28 24 19 37 34 20 4 5 4 11 3 5 5 8 9 7 12 14 13 17 32 40 27 23 21 20 26 17 20 19 12 14 14 13 19 24 27 36
32 33 34 36 38 42 32 7 8 9 13 20 12 20 15 23 27 36 41 37 24 7 9 6 4 8 6 6 6 6 13 23 20 14 18 19 26 28 28 27 17 23 21 24 21 21 19 16 12 13 16 20 24 29
32 33 30 27 21 25 10 6 7 10 17 22 25 37 29 30 37 36 41 41 34 18 11 10 9 6 8 11 8 13 26 23 34 32 26 24 27 27 29 35 31 30 28 28 28 23 19 12 4 9 14 15 19 23
28 24 18 21 26 9 8 11 9 13 10 15 32 32 28 32 37 45 50 49 46 14 12 7 7 10 13 24 25 33 34 36 38 36 31 27 28 34 35 34 36 33 36 33 31 26 27 26 18 11 13 12 14 20
24 23 24 25 15 12 10 11 10 12 19 15 25 38 35 38 26 34 21 21 7 8 5 5 24 29 28 27 37 44 41 28 49 40 37 32 28 37 40 46 40 32 46 44 42 37 35 34 25 19 15 12 13 15
23 29 28 17 5 4 11 12 13 22 15 22 32 15 16 13 22 15 13 8 0 5 12 23 33 37 39 35 33 29 35 40 37 38 42 46 43 35 40 45 49 41 51 52 44 45 42 35 35 31 26 19 13 13
24 18 9 5 5 6 13 11 8 9 5 12 25 11 7 12 13 23 5 8 9 24 27 30 32 34 35 31 23 20 21 23 30 36 36 42 45 46 43 40 50 55 51 63 53 48 49 42 40 36 33 26 18 14
15 4 3 5 5 9 13 7 9 10 7 9 6 10 7 8 18 8 4 5 20 31 34 27 25 30 34 31 29 29 30 24 25 30 29 34 42 45 42 46 46 54 51 61 58 52 54 53 50 46 38 29 21 15
3 3 3 7 7 6 7 6 7 4 6 5 6 8 7 4 4 3 5 24 45 42 46 55 39 35 37 38 35 36 31 32 30 33 28 36 39 40 40 45 45 49 45 55 58 54 55 60 56 51 42 36 30 24
2 5 7 5 5 6 6 6 5 6 9 6 6 13 13 4 5 8 6 38 44 53 57 46 48 47 46 47 54 50 40 34 30 31 33 30 38 41 38 39 46 50 51 55 57 58 61 68 64 57 47 42 36 28
5 8 10 11 10 13 10 13 17 7 6 5 5 8 7 8 9 9 34 44 52 51 43 39 43 44 44 43 50 52 36 21 23 22 21 26 28 32 38 42 52 49 45 44 49 52 62 69 67 60 53 50 43 34
12 8 9 6 11 14 6 5 4 4 5 6 11 5 4 7 7 22 28 44 41 40 42 44 46 44 41 43 53 62 63 31 16 22 26 14 11 16 24 31 36 41 41 41 39 51 57 57 58 62 58 55 49 39
9 8 9 14 10 8 8 7 6 7 5 2 3 5 7 9 21 26 34 34 35 38 43 50 54 51 45 44 51 60 60 71 64 54 51 44 33 26 12 9 16 24 29 43 47 48 51 53 55 63 61 58 51 44
8 8 6 6 5 6 12 13 18 25 18 15 10 12 26 27 43 35 32 33 38 43 40 42 47 54 53 52 49 50 55 58 59 60 55 50 42 32 22 14 8 13 21 27 43 53 57 51 56 67 71 64 56 51
6 7 7 9 10 19 29 28 25 11 12 3 3 9 20 13 17 49 47 40 37 37 41 46 47 51 51 51 51 52 57 53 47 46 48 47 43 36 28 23 14 10 4 6 23 36 47 52 57 65 68 70 65 56
9 13 7 6 10 25 28 18 8 6 7 6 10 7 10 9 11 28 53 45 41 41 40 41 44 44 43 42 43 46 49 52 53 49 46 48 50 43 35 29 25 19 10 5 4 22 41 47 53 63 72 74 65 51
10 15 14 9 7 8 11 17 6 8 9 7 9 19 17 9 8 24 32 41 41 35 30 30 30 32 37 43 45 46 47 45 45 48 50 50 48 49 48 42 34 28 22 11 2 10 25 35 41 46 59 62 54 48
Wind_Direction_850mb
318 320 322 323 325 324 323 322 322 328 328 325 327 329 329 328 288 291 282 292 277 253 287 278 266 264 277 246 253 318 331 338 335 4 342 327 295 309 299 280 312 304 295 207 215 227 251 7 325 232 10 314 321 304
317 321 322 321 322 321 321 322 327 329 325 324 326 326 314 317 316 301 292 290 298 251 275 294 294 280 256 247 265 281 274 290 258 329 302 296 297 295 305 296 351 302 253 286 263 306 315 301 271 277 274 267 320 315
318 320 320 320 320 321 323 325 324 323 321 320 321 323 318 295 296 286 285 281 289 279 295 294 297 255 27 296 232 219 239 232 243 242 294 280 278 279 304 316 290 261 216 238 305 232 286 322 315 347 55 43 37 45
319 319 318 319 320 321 321 322 323 322 320 316 317 318 312 301 292 289 273 277 276 272 280 281 307 297 290 279 241 245 240 248 279 261 251 250 266 205 281 295 292 250 296 286 258 270 335 352 342 18 41 44 51 47
316 316 319 320 319 320 321 321 321 320 320 316 316 316 312 301 300 291 283 275 261 240 280 293 309 325 320 265 251 220 232 242 269 256 232 246 256 272 250 285 268 318 302 346 334 347 343 8 357 28 31 29 39 26
315 317 317 318 320 323 323 323 323 323 322 318 317 315 309 304 302 316 310 290 234 211 256 288 312 306 337 296 203 209 229 240 241 256 246 264 254 233 310 282 266 344 343 356 306 336 17 360 24 38 29 13 30 32
313 313 315 318 323 323 324 325 328 328 325 319 315 308 299 292 272 236 242 287 309 191 254 274 296 284 311 270 222 216 222 225 232 255 244 258 285 219 197 263 300 341 352 30 30 37 24 35 36 53 66 31 33 12
311 314 318 321 323 324 327 327 328 329 324 319 316 307 299 279 257 266 280 240 218 212 253 275 277 316 282 345 294 229 199 200 223 252 271 242 294 292 258 259 327 351 10 25 38 49 52 62 50 46 44 42 36 359
313 316 318 320 323 327 327 330 333 332 329 322 318 318 314 8 164 269 317 280 233 219 289 219 245 266 284 239 231 239 225 233 190 226 251 184 302 241 221 242 11 11 7 6 47 57 50 50 45 38 38 46 45 17
312 316 320 321 324 327 328 336 327 341 342 334 325 280 210 191 275 297 234 215 173 211 233 252 207 267 302 294 274 166 221 278 270 229 259 191 260 267 232 206 347 19 21 43 67 56 49 51 45 36 41 44 44 37
313 316 320 322 326 327 330 332 333 340 348 355 343 309 307 279 296 225 228 199 176 250 228 244 232 234 261 190 233 146 244 281 293 296 349 299 280 242 197 203 359 72 75 73 83 71 57 72 63 47 37 41 45 43
312 314 320 323 326 324 327 330 338 336 338 321 312 305 305 271 240 212 220 195 197 232 204 203 250 217 251 224 186 205 187 36 251 337 31 274 259 196 175 166 147 129 114 83 72 60 59 75 62 58 45 39 43 47
314 316 320 319 318 321 321 335 334 332 330 321 282 265 248 242 250 212 220 215 212 200 22 301 252 223 210 214 213 96 114 235 345 38 241 234 261 192 172 156 169 167 149 109 96 79 89 92 68 54 50 44 44 52
316 320 320 316 311 315 319 326 330 330 324 286 255 257 208 219 237 205 204 171 38 293 290 309 290 192 181 166 170 157 208 70 11 305 239 250 227 188 190 191 180 175 157 141 114 71 90 96 77 51 41 47 50 54
319 327 320 314 317 315 321 318 317 311 265 256 234 240 237 239 263 269 280 296 289 308 324 324 258 216 160 221 220 113 142 248 205 232 236 250 202 188 193 187 191 183 168 173 154 127 112 110 90 74 56 53 55 61
318 329 329 324 313 314 319 314 317 273 245 237 233 255 260 293 287 294 307 314 332 322 322 237 281 283 236 183 188 215 147 221 249 221 244 240 200 189 193 199 203 196 181 167 179 159 127 115 95 74 65 65 64 65
316 333 331 331 324 323 321 311 264 228 241 242 251 250 260 280 270 280 304 309 318 320 259 147 217 224 165 240 249 174 205 225 241 227 219 221 205 197 193 204 214 228 207 192 173 179 174 151 132 94 80 82 74 72
323 334 335 328 321 326 330 284 261 255 252 247 247 273 266 269 288 296 303 315 310 268 276 249 209 224 214 229 248 234 273 303 289 248 230 215 213 209 204 205 217 212 219 211 194 184 185 171 146 107 87 85 82 81
326 330 331 336 334 332 301 279 250 268 259 279 277 288 289 292 298 300 301 304 302 293 260 244 222 211 230 231 260 265 249 287 297 283 242 219 223 219 208 207 208 209 216 207 203 203 207 200 155 101 92 98 96 89
332 334 337 321 323 311 286 269 265 271 280 303 302 295 312 301 304 300 296 292 288 263 202 228 229 252 266 284 294 303 298 303 298 295 271 231 223 229 216 211 211 214 204 201 202 198 195 184 174 142 121 109 114 111
354 351 342 331 319 220 272 305 282 272 291 285 295 321 309 300 292 304 307 333 269 222 250 340 342 323 328 305 293 297 292 268 269 272 270 270 246 235 221 217 219 218 203 202 201 200 202 199 188 174 163 143 128 126
349 337 336 343 298 263 262 250 258 288 286 285 303 287 268 275 288 280 282 247 245 46 1 332 330 331 319 321 316 304 291 283 274 273 262 253 258 244 229 215 215 220 209 206 211 209 206 199 193 186 181 174 156 142
342 333 327 312 286 259 270 286 262 272 278 302 310 297 294 305 295 317 300 39 51 351 335 321 318 318 312 314 332 330 307 299 270 262 258 240 249 250 241 223 215 211 213 212 216 215 208 202 198 196 190 190 183 169
344 306 299 293 275 279 309 275 258 277 284 325 318 293 318 282 315 302 357 72 7 14 9 350 339 336 336 337 331 336 341 318 292 265 246 255 251 237 237 231 222 217 220 212 211 210 210 204 201 199 199 201 201 197
305 225 198 272 247 271 276 265 274 313 280 287 280 280 269 338 289 279 41 3 342 340 350 10 21 22 7 359 341 335 326 326 312 282 250 239 246 243 239 237 228 224 215 204 205 217 210 207 205 202 202 205 204 200
265 218 178 232 268 215 286 315 295 297 312 287 275 290 323 312 269 46 41 357 348 355 3 359 5 7 2 6 3 0 340 323 311 286 272 265 255 253 250 220 205 208 214 211 207 210 212 204 206 205 206 208 209 205
261 277 235 233 236 267 275 275 284 272 255 268 308 320 336 316 22 2 347 351 353 5 11 7 3 7 4 7 7 8 12 354 339 312 287 277 251 237 241 237 222 216 209 211 212 218 209 203 205 205 205 206 208 208
240 256 220 225 243 246 256 258 254 251 265 284 320 294 346 23 7 333 332 354 3 12 17 21 18 16 20 27 26 20 28 56 99 88 95 102 139 205 219 225 230 220 216 218 221 212 206 204 213 210 207 206 205 203
245 241 269 276 282 231 225 236 244 247 259 260 326 323 67 47 13 5 9 8 10 14 15 15 14 17 24 29 35 34 33 34 38 43 45 31 53 57 76 168 187 196 212 221 224 215 217 227 215 215 212 208 205 200
249 212 247 262 242 238 226 241 249 268 255 270 284 129 105 68 42 37 32 28 24 19 20 23 19 22 22 22 21 33 37 35 36 34 28 22 20 23 37 60 102 194 217 225 229 222 223 229 221 213 209 205 200 198
251 216 237 232 261 273 307 311 321 279 262 272 282 206 153 149 44 30 31 29 27 22 17 20 25 26 27 31 33 30 31 35 36 33 31 25 24 13 28 47 51 48 61 219 223 226 227 228 224 217 208 204 199 197
209 218 229 238 265 305 313 315 278 157 116 98 31 106 102 86 47 18 12 18 24 26 22 19 22 29 33 33 35 39 39 35 33 34 31 30 30 27 30 38 39 37 30 29 241 236 231 231 228 217 207 197 189 183
254 258 246 262 286 306 319 325 251 98 82 85 66 66 73 81 81 18 14 21 24 21 23 30 35 38 37 34 33 33 33 34 35 38 38 37 35 39 43 42 40 39 34 25 279 243 229 223 213 213 198 185 177 168